| time (UTC) | temp F | wind direction | speed knots | gust knots | rain 1hr in | rain 24hr in | rain mn in | humidity % | barometer mb |
| 20260502190101 | 60 | 56 | 2.6 | 6.1 | 0.00 | 0.00 | 0.00 | 56 | 1011.2 |
| 20260502184556 | 59 | 68 | 3.5 | 7.8 | 0.00 | 0.00 | 0.00 | 57 | 1011.4 |
| 20260502183059 | 59 | 344 | 3.5 | 7.0 | 0.00 | 0.00 | 0.00 | 58 | 1011.9 |
| 20260502181557 | 58 | 339 | 2.6 | 7.8 | 0.00 | 0.00 | 0.00 | 59 | 1012.2 |
| 20260502163059 | 56 | 343 | 2.6 | 7.8 | 0.00 | 0.00 | 0.00 | 69 | 1012.9 |
| 20260502161556 | 55 | 300 | 2.6 | 7.0 | 0.00 | 0.00 | 0.00 | 70 | 1012.9 |
| 20260502151608 | 55 | 27 | 3.5 | 7.0 | 0.00 | 0.00 | 0.00 | 71 | 1013.4 |
| 20260502150108 | 55 | 316 | 3.5 | 6.1 | 0.00 | 0.00 | 0.00 | 70 | 1013.2 |
| 20260502123056 | 53 | 325 | 1.7 | 4.3 | 0.00 | 0.00 | 0.00 | 84 | 1013.2 |
| 20260502121554 | 53 | 30 | 1.7 | 5.2 | 0.00 | 0.00 | 0.00 | 85 | 1013.0 |
| 20260502120107 | 52 | 315 | 1.7 | 5.2 | 0.00 | 0.00 | 0.00 | 86 | 1013.1 |
| 20260502114600 | 52 | 300 | 1.7 | 5.2 | 0.00 | 0.00 | 0.00 | 87 | 1013.2 |
| 20260502113057 | 52 | 319 | 2.6 | 6.1 | 0.00 | 0.00 | 0.00 | 88 | 1013.1 |
| 20260502111601 | 52 | 326 | 2.6 | 4.3 | 0.00 | 0.00 | 0.00 | 89 | 1013.0 |
| 20260502110057 | 52 | 317 | 2.6 | 6.1 | 0.00 | 0.00 | 0.00 | 90 | 1012.8 |
| 20260502104559 | 51 | 345 | 1.7 | 4.3 | 0.00 | 0.00 | 0.00 | 92 | 1012.7 |
| 20260502103108 | 50 | 347 | 0.9 | 1.7 | 0.00 | 0.00 | 0.00 | 93 | 1012.5 |
| 20260502101554 | 50 | 338 | 0.0 | 2.6 | 0.00 | 0.00 | 0.00 | 94 | 1012.5 |
| 20260502100113 | 49 | 338 | 0.0 | 0.9 | 0.00 | 0.00 | 0.00 | 95 | 1012.2 |
| 20260502070100 | 50 | 0 | 0.0 | 0.0 | 0.00 | 0.00 | 0.00 | 86 | 1012.2 |
| 20260502064607 | 50 | 0 | 0.0 | 0.0 | 0.00 | 0.00 | 0.00 | 85 | 1012.4 |
| 20260502063054 | 51 | 0 | 0.0 | 0.0 | 0.00 | 0.00 | 0.00 | 84 | 1012.5 |
| 20260502061554 | 52 | 0 | 0.0 | 0.9 | 0.00 | 0.00 | 0.00 | 84 | 1012.6 |
| 20260502060059 | 52 | 143 | 0.0 | 0.9 | 0.00 | 0.00 | 0.00 | 83 | 1012.9 |
| 20260502054553 | 52 | 0 | 0.0 | 0.0 | 0.00 | 0.00 | 0.00 | 83 | 1013.0 |
| 20260502053055 | 52 | 131 | 0.0 | 1.7 | 0.00 | 0.00 | 0.00 | 83 | 1013.4 |
| 20260502051622 | 52 | 0 | 0.0 | 1.7 | 0.00 | 0.00 | 0.00 | 83 | 1013.5 |
| 20260502050053 | 52 | 82 | 0.9 | 3.5 | 0.00 | 0.00 | 0.00 | 83 | 1013.6 |
| 20260502044602 | 51 | 75 | 0.0 | 1.7 | 0.00 | 0.00 | 0.00 | 86 | 1013.8 |
| 20260502043050 | 51 | 0 | 0.0 | 1.7 | 0.00 | 0.00 | 0.00 | 87 | 1013.9 |
| 20260502041554 | 51 | 0 | 0.0 | 2.6 | 0.00 | 0.00 | 0.00 | 88 | 1013.7 |
| 20260502040053 | 51 | 152 | 0.0 | 2.6 | 0.00 | 0.00 | 0.00 | 88 | 1013.5 |
| 20260502034550 | 51 | 177 | 0.0 | 1.7 | 0.00 | 0.00 | 0.00 | 87 | 1013.6 |
| 20260502033055 | 51 | 160 | 0.9 | 2.6 | 0.00 | 0.00 | 0.00 | 86 | 1012.9 |
| 20260502031645 | 51 | 84 | 0.9 | 3.5 | 0.00 | 0.00 | 0.00 | 86 | 1013.0 |
| 20260502030053 | 51 | 163 | 0.0 | 2.6 | 0.00 | 0.00 | 0.00 | 85 | 1013.4 |
| 20260502024555 | 51 | 152 | 0.0 | 0.9 | 0.00 | 0.00 | 0.00 | 85 | 1013.6 |
| 20260502023050 | 51 | 0 | 0.0 | 1.7 | 0.00 | 0.00 | 0.00 | 84 | 1013.9 |
| 20260502021555 | 51 | 134 | 0.9 | 2.6 | 0.00 | 0.00 | 0.00 | 85 | 1014.0 |
| 20260502020108 | 51 | 0 | 0.0 | 0.9 | 0.00 | 0.00 | 0.00 | 84 | 1013.8 |
| 20260502014555 | 51 | 0 | 0.0 | 1.7 | 0.00 | 0.00 | 0.00 | 84 | 1013.7 |
| 20260502013102 | 51 | 119 | 0.9 | 1.7 | 0.00 | 0.00 | 0.00 | 85 | 1013.7 |
| 20260502011553 | 51 | 0 | 0.0 | 1.7 | 0.00 | 0.00 | 0.00 | 84 | 1013.7 |
| 20260502010055 | 51 | 156 | 0.0 | 1.7 | 0.00 | 0.00 | 0.00 | 84 | 1013.8 |
| 20260502004554 | 52 | 0 | 0.0 | 4.3 | 0.00 | 0.00 | 0.00 | 84 | 1013.6 |
| 20260502003053 | 52 | 103 | 0.0 | 2.6 | 0.00 | 0.00 | 0.00 | 85 | 1013.5 |
| 20260502001551 | 52 | 143 | 0.0 | 1.7 | 0.00 | 0.00 | 0.00 | 85 | 1013.2 |
| 20260502000058 | 52 | 134 | 0.0 | 1.7 | 0.00 | 0.00 | 0.00 | 84 | 1013.1 |
| 20260501234556 | 53 | 158 | 0.0 | 1.7 | 0.00 | 0.00 | 0.00 | 83 | 1013.1 |
| 20260501233054 | 54 | 149 | 0.0 | 4.3 | 0.00 | 0.00 | 0.00 | 80 | 1013.3 |
| 20260501231600 | 55 | 148 | 0.9 | 2.6 | 0.00 | 0.00 | 0.00 | 78 | 1013.1 |
| 20260501230052 | 57 | 127 | 0.9 | 2.6 | 0.00 | 0.00 | 0.00 | 75 | 1012.9 |
| 20260501224554 | 58 | 141 | 0.9 | 3.5 | 0.00 | 0.00 | 0.00 | 74 | 1012.7 |
| 20260501223054 | 58 | 165 | 1.7 | 5.2 | 0.00 | 0.00 | 0.00 | 73 | 1013.0 |
| 20260501221552 | 59 | 94 | 1.7 | 4.3 | 0.00 | 0.00 | 0.00 | 71 | 1013.1 |
| 20260501220054 | 59 | 179 | 1.7 | 5.2 | 0.00 | 0.00 | 0.00 | 68 | 1013.3 |
| 20260501214602 | 59 | 84 | 2.6 | 5.2 | 0.00 | 0.00 | 0.00 | 68 | 1013.3 |
| 20260501213100 | 60 | 143 | 1.7 | 3.5 | 0.00 | 0.00 | 0.00 | 66 | 1013.2 |
| 20260501211552 | 60 | 156 | 1.7 | 5.2 | 0.00 | 0.00 | 0.00 | 63 | 1013.1 |
| 20260501210053 | 60 | 147 | 1.7 | 7.0 | 0.00 | 0.00 | 0.00 | 64 | 1013.3 |
| 20260501204551 | 60 | 143 | 1.7 | 4.3 | 0.00 | 0.00 | 0.00 | 66 | 1013.5 |
| 20260501203051 | 60 | 236 | 1.7 | 5.2 | 0.00 | 0.00 | 0.00 | 65 | 1013.5 |
| 20260501201553 | 60 | 191 | 2.6 | 6.1 | 0.00 | 0.00 | 0.00 | 64 | 1013.6 |
| 20260501200052 | 60 | 131 | 1.7 | 6.1 | 0.00 | 0.00 | 0.00 | 64 | 1013.6 |
| 20260501194559 | 60 | 143 | 0.9 | 7.0 | 0.00 | 0.00 | 0.00 | 68 | 1013.9 |
| 20260501193052 | 61 | 152 | 1.7 | 6.1 | 0.00 | 0.00 | 0.00 | 67 | 1013.8 |
| 20260501191549 | 60 | 167 | 1.7 | 5.2 | 0.00 | 0.00 | 0.00 | 65 | 1014.0 |